sat.trackr.live / text

‹ back to catalog

STARLINK-30101

NORAD 56301 · 2023-056R

PAYLOAD ACTIVE UNKNOWN

§ Identity

Operator
Country
US
Launch date
2023-04-19
Launch site
AFETR
Launch vehicle
Mass (kg)
RCS (m²)

Purposes: comms

External: N2YO · Heavens-Above · Gunter

§ Orbital elements

Epoch: 2026-09-20T04:05:05.233344Z

Period
94.47 min
Inclination
42.9996°
Eccentricity
0.0000882
Mean motion
15.24239376 rev/d
Perigee alt
492.5 km
Apogee alt
493.7 km
Semi-major
6,871.2 km
B*
7.9932e-5
RAAN
188.8310°
Arg perigee
279.0970°
Mean anomaly
80.9781°
Rev number
18,986

§ Raw data

STARLINK-301011 56301U 23056R   26263.17019946  .00001736  00000+0  79932-4 0  99972 56301  42.9996 188.8310 0000882 279.0970  80.9781 15.24239376189864

JSON: /api/v1/satellites/56301 · /tle

For live sub-satellite position, see the globe view (requires WebGL).

§ Visibility from observer

Set your observer location to see the next 7 days of passes ≥ 10°. The values pass through the URL so the page stays shareable.

No JS? Fill the form by hand. The geolocation button needs JavaScript.